DECAYED

STARLINK-5077, 55391 (Decayed)

Orbit data source: Space-Track

STARLINK-5077, 55391 was a payload satellite owned by SpaceX/Seattle (US) in LEO that was launched on Tue, 31 Jan 2023 UTC via an FALCON 9 launch vehicle from the Air Force Western Test Range (AFWTR). Payload-class satellites include a variety of spacecraft equipped with specific instruments for various scientific and technological missions. These include communications satellites like Starlink; space stations such as the ISS; scientific satellites like the Hubble; Earth observation satellites from companies like Planet Labs, Umbra, and HawkEye 360; GPS; miniature CubeSats for education and research; and military/defense satellites.

Not visible in the next 10 days
Identifier
55391, 2023-014A
Orbit
Decayed
Country
Flag of USUS
Related business
Manufacturer
SpaceX/Seattle
Mission
Decayed Commercial Communications
Bus & Motor
STARLINK, Unknown motor
Mass
305 kg wet, ~290 kg dry
Launch date (UTC)
2023-01-31 (3 years ago)
Launch vehicle
FALCON 9
Launch site
Air Force Western Test Range (AFWTR)
Object type
Payload
Rocket body
Debris
Shape & HBR
Box + 1 Pan, 10.1 m
Radar Cross Section
13.562 m², Large (>1 m²)

Expand to show TLE details & history
Last TLE update: 1 year ago

TLE from 1 year ago
0 STARLINK-5077
1 55391U 23014A   25121.97597800  .17161404  44403-5  21989-3 0  9995
2 55391  69.9866 107.9701 0011871 227.7592 160.4276 16.48801001124974
Epoch: 2025-05-01T23:25Z
TLE epoch observation values (Epoch: 2025-05-01T23:25:24.499Z)
Latitude
26.44156°
Longitude
-93.14603°
Altitude
152.61 km
Speed
7.813 km/s
True Right ascension
07h 53m 22s
True Declination
26° 17' 31"
Sunlit
Object was in daylight at epoch
Visualization orbit readout
Latitude
Unknown
Longitude
Unknown
Altitude
Unknown
Speed
Unknown
Apparent Right ascension
Unknown
Apparent Declination
Unknown
Sunlit
N/A
Visualization observer readout
Local Sidereal Time
21:33:13
Azimuth
Unknown
Elevation
Unknown
Doppler factor
Unknown
Orbital elements
Apogee altitude
148.047 km
Perigee altitude
132.571 km
Semi-major axis
6,518.446 km
Eccentricity
0.00119
Inclination
69.9866°
RAAN
107.9701°
Arg. of periapsis
227.7592°
True anomaly
160.47311°
Mean anomaly
160.4276°
Eccentric anomaly
160.45036°
Mean motion
4.12408 °/min
Orbital period
87.29 mins
BSTAR
0.00021989
Loading maneuver chart data...
Computing Atmospheric mass density...

Documentation

Showing up to 5 results
|